Simultaneous Nadir Overpasses (SNOs) Predictions

Prediction of SNOs between METOP-B and NOAA-19 Satellite Orbit:

Table of predicted SNOs for the next 14.0 days since TLE Epoch: 3/14/2013
Index Date (METOP-B) Time (METOP-B) Lat,Lon (METOP-B) SZA (METOP-B ) Date (NOAA-19) Time (NOAA-19) Lat,Lon (NOAA-19) SZA (NOAA-19 ) Distance(km) Time Diff (sec)
1 03/15/2013 20:21:38 -73.26, 47.89 104.81 03/15/2013 20:20:28 -73.26, 47.80 104.79 2.75 70
2 03/15/2013 21:12:18 73.24,-144.82 75.16 03/15/2013 21:11:25 73.20,-144.82 75.14 3.74 53
3 03/15/2013 22:03:01 -73.19, 22.39 104.90 03/15/2013 22:02:31 -73.17, 22.48 104.91 3.08 30
4 03/15/2013 22:53:41 73.17,-170.31 75.07 03/15/2013 22:53:29 73.17,-170.26 75.07 1.87 12
5 03/15/2013 23:44:23 -73.17, -2.99 104.95 03/15/2013 23:44:35 -73.14, -2.96 104.98 3.42 12
6 03/16/2013 00:35:03 73.15, 164.30 75.03 03/16/2013 00:35:33 73.13, 164.30 75.01 1.54 30
7 03/16/2013 01:25:46 -73.10, -28.48 105.04 03/16/2013 01:26:39 -73.10, -28.40 105.05 2.61 53
8 03/16/2013 02:16:26 73.07, 138.81 74.94 03/16/2013 02:17:37 73.10, 138.87 74.94 3.02 71
9 03/25/2013 20:14:41 -73.23, 49.60 108.80 03/25/2013 20:13:26 -73.23, 49.68 108.80 2.80 75
10 03/25/2013 21:05:20 73.24,-143.06 71.19 03/25/2013 21:04:25 73.23,-143.06 71.19 1.12 55
11 03/25/2013 21:56:03 -73.21, 24.21 108.85 03/25/2013 21:55:30 -73.19, 24.24 108.86 2.45 33
12 03/25/2013 22:46:42 73.22,-168.45 71.14 03/25/2013 22:46:29 73.19,-168.50 71.12 3.19 13
13 03/25/2013 23:37:26 -73.14, -1.28 108.94 03/25/2013 23:37:34 -73.16, -1.20 108.93 3.06 8
14 03/26/2013 00:28:05 73.14, 166.06 71.05 03/26/2013 00:28:33 73.16, 166.05 71.06 1.49 28
15 03/26/2013 01:18:48 -73.12, -26.67 108.99 03/26/2013 01:19:38 -73.13, -26.65 108.99 0.66 50
16 03/26/2013 02:09:27 73.12, 140.67 71.00 03/26/2013 02:10:37 73.12, 140.61 70.99 1.94 70
17 03/26/2013 03:00:23 -72.45, -53.42 109.62 03/26/2013 03:01:30 -72.49, -50.81 109.71 87.57 67




NCC Satellite Simultaneous Nadir Overpasses (SNOs) Prediction Service
